"datetime","# probes","# resolvers","can_ipv6","can_ipv6_prbs","can_tcp","can_tcp_prbs","can_tcp6","can_tcp6_prbs","does_ecs","does_ecs_prbs","does_flagday","does_flagday_prbs","does_rov4","does_rov4_prbs","does_rov6","does_rov6_prbs","does_qnamemin","doesnt_qnamemin","does_qnamemin_prbs","doesnt_qnamemin_prbs","does_nxdomain","doesnt_nxdomain","does_nxdomain_prbs","doesnt_nxdomain_prbs","has_ta_19036","hasnt_ta_19036","has_ta_19036_prbs","hasnt_ta_19036_prbs","has_ta_20326","hasnt_ta_20326","has_ta_20326_prbs","hasnt_ta_20326_prbs","can_rsamd5","cannot_rsamd5","broken_rsamd5","can_rsamd5_prbs","cannot_rsamd5_prbs","broken_rsamd5_prbs","can_dsa","cannot_dsa","broken_dsa","can_dsa_prbs","cannot_dsa_prbs","broken_dsa_prbs","can_rsasha1","cannot_rsasha1","broken_rsasha1","can_rsasha1_prbs","cannot_rsasha1_prbs","broken_rsasha1_prbs","can_dsansec3","cannot_dsansec3","broken_dsansec3","can_dsansec3_prbs","cannot_dsansec3_prbs","broken_dsansec3_prbs","can_rsansec3","cannot_rsansec3","broken_rsansec3","can_rsansec3_prbs","cannot_rsansec3_prbs","broken_rsansec3_prbs","can_rsasha256","cannot_rsasha256","broken_rsasha256","can_rsasha256_prbs","cannot_rsasha256_prbs","broken_rsasha256_prbs","can_rsasha512","cannot_rsasha512","broken_rsasha512","can_rsasha512_prbs","cannot_rsasha512_prbs","broken_rsasha512_prbs","can_eccgost","cannot_eccgost","broken_eccgost","can_eccgost_prbs","cannot_eccgost_prbs","broken_eccgost_prbs","can_ecdsa256","cannot_ecdsa256","broken_ecdsa256","can_ecdsa256_prbs","cannot_ecdsa256_prbs","broken_ecdsa256_prbs","can_ecdsa384","cannot_ecdsa384","broken_ecdsa384","can_ecdsa384_prbs","cannot_ecdsa384_prbs","broken_ecdsa384_prbs","can_ed25519","cannot_ed25519","broken_ed25519","can_ed25519_prbs","cannot_ed25519_prbs","broken_ed25519_prbs","can_ed448","cannot_ed448","broken_ed448","can_ed448_prbs","cannot_ed448_prbs","broken_ed448_prbs","can_gost","cannot_gost","broken_gost","can_gost_prbs","cannot_gost_prbs","broken_gost_prbs","can_sha384","cannot_sha384","broken_sha384","can_sha384_prbs","cannot_sha384_prbs","broken_sha384_prbs","is_internal","is_forwarding","is_external","is_internal_prbs","is_forwarding_prbs","is_external_prbs"
2017-06-20T23:59:59Z,126,254,254,126,254,126,252,126,0,14,0,0,0,0,0,0,0,254,0,126,0,254,0,126,0,0,0,0,0,0,0,0,254,0,0,126,8,8,253,1,0,125,17,0,253,1,0,126,9,0,252,2,0,125,18,0,253,1,0,126,9,0,253,1,0,126,9,0,254,0,0,126,8,0,2,252,0,3,125,0,254,0,0,126,8,0,253,1,0,126,9,0,0,254,0,0,126,0,0,254,0,0,126,0,3,251,0,11,125,0,253,1,0,126,9,0,235,0,19,115,5,23
2017-06-21T23:59:59Z,130,264,264,130,264,130,261,130,1,14,0,0,0,0,0,0,0,264,0,130,0,264,0,130,0,0,0,0,0,0,0,0,264,0,0,130,9,9,263,1,0,129,18,0,264,0,0,130,8,0,263,1,0,129,19,0,264,0,0,130,9,0,264,0,0,130,9,0,264,0,0,130,9,0,2,262,0,3,129,0,264,0,0,130,8,0,264,0,0,130,8,0,0,264,0,0,130,0,0,264,0,0,130,0,2,262,0,11,129,0,264,0,0,130,8,0,241,0,23,118,5,24
2017-06-22T23:59:59Z,130,265,265,130,265,130,261,130,1,13,0,0,0,0,0,0,0,265,0,130,0,265,0,130,0,0,0,0,0,0,0,0,265,0,0,130,8,9,264,1,0,129,18,0,263,2,0,129,9,0,264,1,0,129,18,0,265,0,0,130,8,0,264,1,0,129,8,0,264,1,0,129,8,0,3,262,0,4,129,0,263,2,0,129,9,0,263,2,0,129,9,0,0,265,0,0,130,0,0,265,0,0,130,0,3,262,0,12,128,0,264,1,0,130,9,0,239,1,25,116,6,24
2017-06-23T23:59:59Z,130,265,265,130,264,130,262,130,1,13,0,0,0,0,0,0,0,265,0,130,0,265,0,130,0,0,0,0,0,0,0,0,265,0,0,130,7,9,264,1,0,129,17,0,265,0,0,130,7,0,265,0,0,130,17,0,265,0,0,130,7,0,265,0,0,130,7,0,264,1,0,130,8,0,2,263,0,3,129,0,265,0,0,130,7,0,264,1,0,130,8,0,0,265,0,0,130,0,0,265,0,0,130,0,3,262,0,12,129,0,264,1,0,130,8,0,239,0,26,117,5,24
2017-06-24T23:59:59Z,130,263,263,130,262,130,257,130,1,13,0,0,0,0,0,0,0,263,0,130,0,263,0,130,0,0,0,0,0,0,0,0,263,0,0,130,8,9,262,1,0,129,18,0,263,0,0,130,7,0,262,1,0,129,17,0,263,0,0,130,7,0,263,0,0,130,7,0,263,0,0,130,8,0,2,261,0,3,129,0,263,0,0,130,8,0,263,0,0,130,8,0,0,263,0,0,130,0,0,263,0,0,130,0,2,261,0,11,129,0,263,0,0,130,7,0,238,0,25,117,5,24
2017-06-25T23:59:59Z,128,260,260,128,260,128,260,128,0,12,0,0,0,0,0,0,0,260,0,128,0,260,0,128,0,0,0,0,0,0,0,0,260,0,0,128,8,10,259,1,0,127,18,1,260,0,0,128,8,1,259,1,0,127,17,1,260,0,0,128,8,1,260,0,0,128,7,1,260,0,0,128,8,1,2,258,0,3,127,1,260,0,0,128,7,1,260,0,0,128,8,1,0,260,0,0,128,1,0,260,0,0,128,1,2,258,0,11,127,1,260,0,0,128,7,1,238,0,22,116,5,23
2017-06-26T23:59:59Z,130,264,264,130,264,130,247,129,0,13,0,0,0,0,0,0,0,264,0,130,0,264,0,130,0,0,0,0,0,0,0,0,264,0,0,130,8,9,262,2,0,129,19,0,264,0,0,130,8,0,262,2,0,129,19,0,264,0,0,130,8,0,263,1,0,130,9,0,264,0,0,130,8,0,2,262,0,3,129,0,264,0,0,130,8,0,264,0,0,130,8,0,0,264,0,0,130,0,0,264,0,0,130,0,2,262,0,11,129,0,263,1,0,130,9,0,241,0,23,118,6,24
2017-06-27T23:59:58Z,131,264,264,131,264,131,252,131,1,15,0,0,0,0,0,0,0,264,0,131,0,264,0,131,0,0,0,0,0,0,0,0,264,0,0,131,10,9,262,2,0,129,19,0,264,0,0,131,9,0,262,2,0,129,19,0,263,1,0,130,9,0,263,1,0,130,10,0,263,1,0,130,9,0,2,262,0,3,130,0,263,1,0,130,9,0,263,1,0,130,9,0,0,264,0,0,131,0,0,264,0,0,131,0,3,261,0,12,130,0,263,1,0,130,9,0,240,1,23,118,7,24
2017-06-28T23:59:58Z,130,265,265,130,265,130,259,130,2,14,0,0,0,0,0,0,0,265,0,130,0,265,0,130,0,0,0,0,0,0,0,0,265,0,0,130,9,10,264,1,0,129,19,1,264,1,0,129,8,1,264,1,0,129,18,0,265,0,0,130,9,1,265,0,0,130,9,1,265,0,0,130,8,1,3,262,0,4,129,1,264,1,0,129,9,1,264,1,0,129,8,1,0,265,0,1,130,0,0,265,0,0,130,1,2,263,0,11,129,1,264,1,0,129,9,1,238,1,26,116,6,24
2017-06-29T23:59:59Z,129,263,263,129,263,129,253,128,0,13,0,0,0,0,0,0,0,263,0,129,0,263,0,129,0,0,0,0,0,0,0,0,263,0,0,129,8,9,262,1,0,128,18,0,263,0,0,129,7,0,262,1,0,128,17,0,263,0,0,129,8,0,263,0,0,129,7,0,263,0,0,129,8,0,2,261,0,3,128,0,263,0,0,129,8,0,263,0,0,129,8,0,0,263,0,0,129,0,0,263,0,0,129,0,2,261,0,11,128,0,263,0,0,129,7,0,237,0,26,116,5,24
2017-06-30T23:59:59Z,130,266,266,130,266,130,259,130,1,14,0,0,0,0,0,0,0,266,0,130,0,266,0,130,0,0,0,0,0,0,0,0,266,0,0,130,7,10,265,1,0,129,18,1,266,0,0,130,7,1,264,2,0,129,19,1,265,1,0,130,8,1,265,1,0,130,8,1,266,0,0,130,7,1,2,264,0,3,129,1,266,0,0,130,7,1,265,1,0,130,8,1,0,266,0,0,130,1,0,266,0,0,130,1,2,264,0,12,129,1,266,0,0,130,7,1,239,0,27,116,5,25
2017-07-01T23:59:58Z,130,265,265,130,265,130,251,130,2,14,0,0,0,0,0,0,0,265,0,130,0,265,0,130,0,0,0,0,0,0,0,0,265,0,0,130,9,9,264,1,0,129,19,0,265,0,0,130,9,0,264,1,0,129,19,0,265,0,0,130,9,0,264,1,0,129,9,0,264,1,0,129,9,0,3,262,0,4,129,0,264,1,0,129,9,0,264,1,0,129,9,0,0,265,0,0,130,0,0,265,0,0,130,0,4,261,0,13,129,0,265,0,0,130,8,0,238,1,26,116,6,24
2017-07-02T23:59:59Z,132,269,269,132,269,132,254,131,2,14,0,0,0,0,0,0,0,269,0,132,0,269,0,132,0,0,0,0,0,0,0,0,269,0,0,132,9,10,268,1,0,131,18,1,269,0,0,132,9,1,267,2,0,130,19,1,268,1,0,131,9,1,268,1,0,131,9,1,268,1,0,131,9,1,2,267,0,3,131,1,268,1,0,131,9,1,268,1,0,131,9,1,0,269,0,0,132,1,0,269,0,0,132,1,2,267,0,11,131,1,268,1,0,131,8,1,239,1,29,117,6,25
2017-07-03T23:59:58Z,131,268,268,131,268,131,252,131,1,14,0,0,0,0,0,0,0,268,0,131,0,268,1,131,0,0,0,0,0,0,0,0,268,0,0,131,8,11,266,2,0,130,19,2,267,1,0,131,9,2,266,2,0,130,19,2,268,0,0,131,8,2,268,0,0,131,8,2,268,0,0,131,8,2,2,266,0,3,130,2,268,0,0,131,8,2,267,1,0,131,9,2,0,268,0,0,131,2,0,268,0,0,131,2,3,265,0,12,129,2,267,1,0,131,9,2,240,0,28,117,6,26
2017-07-04T23:59:58Z,133,269,269,133,269,133,249,133,0,13,0,0,0,0,0,0,0,269,0,133,0,269,1,133,0,0,0,0,0,0,0,0,269,0,0,133,9,11,269,0,0,133,18,2,269,0,0,133,9,2,269,0,0,133,17,2,269,0,0,133,8,2,269,0,0,133,8,2,269,0,0,133,8,2,2,267,0,3,132,2,269,0,0,133,9,2,269,0,0,133,8,2,0,269,0,0,133,2,0,269,0,0,133,2,2,267,0,11,132,2,269,0,0,133,9,2,242,0,27,119,6,26
2017-07-05T23:59:59Z,134,272,272,134,272,134,257,134,1,14,0,0,0,0,0,0,0,272,0,134,0,272,1,134,0,0,0,0,0,0,0,0,272,0,0,134,8,12,271,1,0,133,18,2,272,0,0,134,8,2,271,1,0,133,19,2,272,0,0,134,7,2,272,0,0,134,7,2,272,0,0,134,8,2,2,270,0,3,133,2,272,0,0,134,7,2,272,0,0,134,8,2,0,272,0,0,134,2,0,272,0,0,134,2,3,269,0,13,133,2,272,0,0,134,8,2,244,0,28,120,5,26
2017-07-06T23:59:59Z,135,275,275,135,275,135,237,134,1,14,0,0,0,0,0,0,0,275,0,135,0,275,1,135,0,0,0,0,0,0,0,0,275,0,0,135,8,11,274,1,0,134,19,1,275,0,0,135,8,1,274,1,0,134,19,1,275,0,0,135,8,1,275,0,0,135,8,1,275,0,0,135,7,1,2,273,0,3,134,1,275,0,0,135,8,1,275,0,0,135,7,1,0,275,0,0,135,1,0,275,0,0,135,1,3,272,0,13,133,1,275,0,0,135,7,1,246,0,29,121,5,26
2017-07-07T23:59:57Z,135,276,276,135,276,135,276,135,2,15,0,0,0,0,0,0,0,276,0,135,0,276,1,135,0,0,0,0,0,0,0,0,276,0,0,135,8,11,275,1,0,134,19,1,275,1,0,134,8,1,275,1,0,134,19,1,275,1,0,135,9,1,275,1,0,134,8,2,275,1,0,135,9,1,3,273,0,4,134,1,274,2,0,134,9,1,275,1,0,134,8,1,0,276,0,0,135,1,0,276,0,0,135,1,4,272,0,14,134,1,275,1,0,134,8,1,249,1,26,121,6,25
2017-07-08T23:59:59Z,135,276,276,135,276,135,276,135,1,14,0,0,0,0,0,0,0,276,0,135,0,276,1,135,0,0,0,0,0,0,0,0,276,0,0,135,8,11,275,1,0,134,19,1,276,0,0,135,7,1,275,1,0,134,18,1,276,0,0,135,7,1,276,0,0,135,8,1,276,0,0,135,8,1,2,274,0,3,134,1,276,0,0,135,8,1,276,0,0,135,8,1,0,276,0,0,135,1,0,276,0,0,135,1,2,274,0,12,134,1,276,0,0,135,7,1,250,0,26,122,5,25
2017-07-09T23:59:58Z,134,277,277,134,277,134,277,134,0,13,0,0,0,0,0,0,0,277,0,134,0,277,1,134,0,0,0,0,0,0,0,0,277,0,0,134,8,11,277,0,0,134,18,1,277,0,0,134,7,1,277,0,0,134,16,1,277,0,0,134,8,1,277,0,0,134,8,1,277,0,0,134,7,1,2,275,0,3,133,1,277,0,0,134,7,1,277,0,0,134,7,1,0,277,0,0,134,1,0,277,0,0,134,1,2,275,0,12,133,1,277,0,0,134,7,1,251,0,26,121,5,25
2017-07-10T23:59:58Z,138,282,282,138,282,138,282,138,1,15,0,0,0,0,0,0,0,282,0,138,0,282,1,138,0,0,0,0,0,0,0,0,282,0,0,138,9,13,281,1,0,137,21,1,282,0,0,138,8,1,281,1,0,137,20,1,282,0,0,138,9,1,282,0,0,138,9,1,282,0,0,138,8,1,2,280,0,3,137,1,282,0,0,138,9,1,282,0,0,138,8,1,0,282,0,0,138,1,0,282,0,0,138,1,3,279,0,14,136,1,282,0,0,138,9,1,257,0,25,125,7,25
2017-07-11T23:59:58Z,137,279,279,137,279,137,279,137,2,15,0,0,0,0,0,0,0,279,0,137,0,279,1,137,0,0,0,0,0,0,0,0,279,0,0,137,9,11,278,1,0,136,19,1,278,1,0,136,8,1,277,2,0,135,20,1,278,1,0,136,9,1,278,1,0,136,8,1,278,1,0,136,9,1,3,276,0,4,136,1,278,1,0,136,9,1,278,1,0,136,9,1,0,279,0,0,137,1,0,279,0,0,137,1,3,276,0,13,135,1,278,1,0,136,8,1,252,1,26,123,6,25
2017-07-12T23:59:59Z,135,276,276,135,276,135,276,135,1,14,0,0,0,0,0,0,0,276,0,135,0,276,1,135,0,0,0,0,0,0,0,0,276,0,0,135,7,11,274,2,0,134,19,1,275,1,0,135,8,1,274,2,0,134,19,1,276,0,0,135,7,1,276,0,0,135,7,1,276,0,0,135,7,1,2,274,0,3,134,1,276,0,0,135,7,1,276,0,0,135,7,1,0,276,0,0,135,1,0,276,0,0,135,1,2,274,0,12,134,1,275,1,0,135,8,1,250,0,26,122,5,25
2017-07-13T23:59:57Z,134,273,273,134,273,134,273,134,1,15,0,0,0,0,0,0,0,273,0,134,0,273,1,134,0,0,0,0,0,0,0,0,273,0,0,134,8,11,271,2,0,133,20,1,271,2,0,133,9,1,270,3,0,132,20,1,272,1,0,133,8,1,271,2,0,133,9,1,272,1,0,133,8,1,2,271,0,3,133,1,271,2,0,133,9,1,271,2,0,133,9,1,0,273,0,0,134,1,0,273,0,0,134,1,2,271,0,12,133,1,272,1,0,133,8,1,246,1,26,120,6,25
2017-07-14T23:59:59Z,134,273,273,134,273,134,273,134,1,14,0,0,0,0,0,0,0,273,0,134,0,273,1,134,0,0,0,0,0,0,0,0,273,0,0,134,7,11,271,2,0,133,19,1,273,0,0,134,7,1,272,1,0,133,18,1,272,1,0,134,8,1,273,0,0,134,7,1,272,1,0,134,8,1,2,271,0,3,133,1,272,1,0,134,8,1,273,0,0,134,7,1,0,273,0,0,134,1,0,273,0,0,134,1,2,271,0,12,133,1,273,0,0,134,7,1,248,0,25,121,5,25
2017-07-15T23:59:59Z,132,268,268,132,268,132,268,132,1,14,0,0,0,0,0,0,0,268,0,132,0,268,0,132,0,0,0,0,0,0,0,0,268,0,0,132,8,10,267,1,0,131,19,0,268,0,0,132,8,0,267,1,0,131,18,0,268,0,0,132,7,0,268,0,0,132,7,0,268,0,0,132,8,0,2,266,0,3,131,0,268,0,0,132,8,0,268,0,0,132,8,0,0,268,0,0,132,0,0,268,0,0,132,0,2,266,0,12,131,0,268,0,0,132,7,0,243,0,25,119,5,25
2017-07-16T23:59:59Z,131,268,268,131,268,131,268,131,1,14,0,0,0,0,0,0,0,268,0,131,0,268,0,131,0,0,0,0,0,0,0,0,268,0,0,131,8,10,267,1,0,130,18,0,268,0,0,131,8,0,267,1,0,130,19,0,268,0,0,131,7,0,268,0,0,131,7,0,268,0,0,131,8,0,2,266,0,3,130,0,268,0,0,131,7,0,268,0,0,131,7,0,0,268,0,0,131,0,0,268,0,0,131,0,2,266,0,12,130,0,268,0,0,131,8,0,242,0,26,118,5,25
2017-07-17T23:59:59Z,131,265,265,131,265,131,265,131,1,14,0,0,0,0,0,0,0,265,0,131,0,265,0,131,0,0,0,0,0,0,0,0,265,0,0,131,8,10,264,1,0,130,18,0,265,0,0,131,8,0,264,1,0,130,19,0,265,0,0,131,8,0,265,0,0,131,8,0,265,0,0,131,8,0,2,263,0,3,130,0,265,0,0,131,7,0,265,0,0,131,7,0,0,265,0,0,131,0,0,265,0,0,131,0,3,262,0,13,129,0,265,0,0,131,8,0,240,0,25,118,5,25
2017-07-18T23:59:59Z,131,266,266,131,266,131,266,131,1,14,0,0,0,0,0,0,0,266,0,131,0,266,0,131,0,0,0,0,0,0,0,0,266,0,0,131,8,10,265,1,0,130,18,0,266,0,0,131,8,0,265,1,0,130,18,0,266,0,0,131,7,0,266,0,0,131,8,0,266,0,0,131,7,0,2,264,0,3,130,0,266,0,0,131,7,0,266,0,0,131,7,0,0,266,0,0,131,0,0,266,0,0,131,0,2,264,0,12,130,0,266,0,0,131,7,0,240,0,26,118,5,25
2017-07-19T23:59:59Z,129,264,264,129,264,129,264,129,1,14,0,0,0,0,0,0,0,264,0,129,0,264,0,129,0,0,0,0,0,0,0,0,264,0,0,129,8,10,263,1,0,128,19,0,264,0,0,129,7,0,263,1,0,128,19,0,264,0,0,129,8,0,264,0,0,129,7,0,264,0,0,129,7,0,2,262,0,3,128,0,264,0,0,129,8,0,264,0,0,129,8,0,0,264,0,0,129,0,0,264,0,0,129,0,2,262,0,12,128,0,264,0,0,129,7,0,238,0,26,116,5,25
2017-07-20T23:59:59Z,132,266,266,132,266,132,266,132,1,14,0,0,0,0,0,0,0,266,0,132,0,266,0,132,0,0,0,0,0,0,0,0,266,0,0,132,8,10,264,1,0,130,18,0,265,0,0,132,7,0,264,1,0,130,19,0,265,0,0,131,7,0,265,0,0,131,7,0,265,0,0,131,8,0,2,264,0,3,131,0,265,0,0,132,8,0,265,0,0,131,8,0,1,265,0,1,131,1,0,265,1,1,131,1,3,263,0,14,131,0,265,0,0,131,7,0,241,0,25,119,5,25
2017-07-21T23:59:58Z,130,266,266,130,266,130,266,130,0,14,0,0,0,0,0,0,0,266,0,130,0,266,0,130,0,0,0,0,0,0,0,0,266,0,0,130,8,10,265,1,0,130,19,0,264,1,0,130,9,0,264,1,0,130,19,0,265,0,0,130,8,0,265,0,0,129,8,0,265,1,0,130,9,0,2,264,0,3,129,0,265,0,0,130,8,0,264,1,0,129,9,0,0,266,0,0,130,0,0,266,0,0,130,0,2,264,0,12,129,0,265,0,0,129,8,0,240,0,26,117,5,26
2017-07-22T23:59:59Z,131,265,265,131,265,131,265,131,1,14,0,0,0,0,0,0,0,265,0,131,0,265,0,131,0,0,0,0,0,0,0,0,265,0,0,131,9,10,264,1,0,130,18,0,264,0,0,131,7,0,263,1,0,130,18,0,264,0,0,131,8,0,264,0,0,130,7,0,265,0,0,131,7,0,2,263,0,3,130,0,264,0,0,131,8,0,264,0,0,130,7,0,0,265,0,0,131,0,0,265,0,0,131,0,2,263,0,12,130,0,264,0,0,130,8,0,239,0,26,118,5,25
2017-07-23T23:59:59Z,132,267,267,132,267,132,267,132,1,14,0,0,0,0,0,0,0,267,0,132,0,267,0,132,0,0,0,0,0,0,0,0,267,0,0,132,8,10,265,2,0,131,19,0,265,1,0,132,8,0,264,2,0,131,19,0,265,1,0,132,8,0,266,0,0,131,7,0,266,1,0,132,8,0,2,265,0,3,131,0,265,1,0,132,8,0,265,1,0,131,8,0,0,267,0,0,132,0,0,267,0,0,132,0,2,265,0,12,131,0,265,1,0,131,8,0,241,0,26,119,5,25
2017-07-24T23:59:59Z,133,268,268,133,268,133,268,133,2,15,0,0,0,0,0,0,0,268,0,133,0,268,0,133,0,0,0,0,0,0,0,0,268,0,0,133,9,10,267,1,0,132,19,0,266,1,0,133,9,0,264,3,0,131,20,0,265,2,0,132,9,0,266,1,0,131,8,0,267,1,0,132,8,0,3,265,0,4,132,0,266,1,0,132,8,0,266,1,0,131,8,0,0,268,0,0,133,0,0,268,0,0,133,0,4,264,0,14,131,0,266,1,0,131,8,0,241,1,26,119,6,25
2017-07-25T23:59:58Z,133,268,268,133,268,133,268,133,0,15,0,0,0,0,0,0,0,268,0,133,0,268,0,133,0,0,0,0,0,0,0,0,268,0,0,133,10,10,267,1,0,132,20,0,267,0,0,133,8,0,266,1,0,132,20,0,267,0,0,133,8,0,267,0,0,132,8,0,268,0,0,133,8,0,2,266,0,3,132,0,267,0,0,133,8,0,267,0,0,132,9,0,0,268,0,0,133,0,0,268,0,0,133,0,2,266,0,12,132,0,267,0,0,132,9,0,242,0,26,120,5,26
2017-07-26T23:59:59Z,134,268,268,134,268,134,268,134,2,16,0,0,0,0,0,0,0,268,0,134,0,268,0,134,0,0,0,0,0,0,0,0,268,0,0,134,11,10,267,1,0,133,21,0,267,0,0,134,10,0,265,2,0,132,21,0,266,1,0,133,9,0,266,1,0,132,9,0,267,1,0,133,9,0,2,266,0,3,133,0,266,1,0,133,10,0,266,1,0,132,9,0,0,268,0,0,134,0,0,268,0,0,134,0,2,266,0,12,133,0,266,1,0,132,9,0,241,1,26,120,6,26
2017-07-27T23:59:58Z,131,264,264,131,264,131,264,131,1,14,0,0,0,0,0,0,0,264,0,131,0,264,1,131,0,0,0,0,0,0,0,0,264,0,0,131,8,10,262,2,0,130,19,1,262,1,0,131,8,0,262,1,0,130,18,1,262,1,0,131,8,0,262,1,0,130,8,0,264,0,0,131,7,0,2,262,0,3,130,1,262,1,0,131,8,0,263,0,0,130,7,0,0,264,0,0,131,0,0,264,0,0,131,0,3,261,0,14,130,0,262,1,0,130,8,1,239,0,25,118,5,25
2017-07-28T23:59:59Z,131,263,263,131,263,131,263,131,1,14,0,0,0,0,0,0,0,263,0,131,0,263,0,131,0,0,0,0,0,0,0,0,263,0,0,131,8,10,262,1,0,130,17,0,261,1,0,131,8,0,261,1,0,130,18,0,262,0,0,131,7,0,261,1,0,130,8,0,263,0,0,131,7,0,2,261,0,3,130,0,261,1,0,131,8,0,261,1,0,130,8,0,0,263,0,0,131,0,0,263,0,0,131,0,3,260,0,13,130,0,262,0,0,130,7,0,238,0,25,118,5,25
2017-07-29T23:59:59Z,130,260,260,130,260,130,260,130,1,13,0,0,0,0,0,0,0,260,0,130,0,260,0,130,0,0,0,0,0,0,0,0,260,0,0,130,9,9,259,1,0,129,17,0,259,0,0,130,8,0,258,1,0,129,17,0,259,0,0,130,8,1,259,0,0,129,7,0,260,0,0,130,7,0,2,258,0,3,129,0,259,0,0,130,8,0,259,0,0,129,7,0,0,260,0,0,130,0,0,260,0,0,130,0,2,258,0,11,129,1,259,0,0,129,7,0,235,0,25,117,5,24
2017-07-30T23:59:59Z,130,261,261,130,261,130,261,130,0,14,0,0,0,0,0,0,0,261,0,130,0,261,0,130,0,0,0,0,0,0,0,0,261,0,0,130,10,9,260,1,0,129,18,0,260,0,0,130,9,0,259,1,0,129,19,0,260,0,0,130,8,0,260,0,0,129,8,0,261,0,0,130,9,0,2,259,0,3,129,0,260,0,0,130,9,0,260,0,0,129,8,0,0,261,0,0,130,0,0,261,0,0,130,0,2,259,0,11,129,0,260,0,0,129,8,0,235,0,26,117,5,25
2017-07-31T23:59:58Z,129,260,260,129,260,129,260,129,0,12,0,0,0,0,0,0,0,260,0,129,0,260,0,129,0,0,0,0,0,0,0,0,260,0,0,129,9,9,260,0,0,129,17,0,259,0,0,129,8,0,259,0,0,129,16,0,259,0,0,129,8,0,259,0,0,128,7,0,260,0,0,129,7,0,2,258,0,3,128,0,259,0,0,129,7,0,259,0,0,128,8,0,0,260,0,0,129,0,0,260,0,0,129,0,2,258,0,11,128,0,259,0,0,128,8,0,234,0,26,116,5,24
2017-08-01T23:59:57Z,129,260,260,129,260,129,260,129,1,13,0,0,0,0,0,0,0,260,0,129,0,260,0,129,0,0,0,0,0,0,0,0,260,0,0,129,9,9,259,1,0,128,18,0,259,0,0,129,7,0,258,1,0,128,18,0,259,0,0,129,8,0,259,0,0,128,7,0,260,0,0,129,7,0,2,258,0,3,128,0,259,0,0,129,7,0,259,0,0,128,8,1,0,260,0,0,129,0,0,260,0,0,129,1,2,258,0,11,128,0,259,0,0,128,7,0,234,0,26,116,5,24
2017-08-02T23:59:59Z,128,258,258,128,258,128,258,128,1,13,0,0,0,0,0,0,0,258,0,128,0,258,0,128,0,0,0,0,0,0,0,0,258,0,0,128,8,9,256,2,0,127,18,0,257,0,0,128,7,0,255,2,0,127,18,0,257,0,0,128,7,0,257,0,0,127,7,0,258,0,0,128,7,0,2,256,0,3,127,0,256,1,0,128,8,0,256,1,0,127,8,0,0,258,0,0,128,0,0,258,0,0,128,0,2,256,0,11,127,0,256,1,0,127,8,0,232,0,26,115,5,24
2017-08-03T23:59:59Z,130,260,260,130,260,130,260,130,1,13,0,0,0,0,0,0,0,260,0,130,0,260,0,130,0,0,0,0,0,0,0,0,260,0,0,130,8,9,259,1,0,129,17,0,259,0,0,130,7,0,257,2,0,129,18,0,258,1,0,130,8,0,259,0,0,129,7,0,259,1,0,130,8,0,2,258,0,3,129,0,258,1,0,130,8,0,259,0,0,129,7,0,0,260,0,0,130,0,0,260,0,0,130,0,3,257,0,12,129,0,258,1,0,129,8,0,234,0,26,117,5,24
2017-08-04T23:59:58Z,130,260,260,130,260,130,260,130,1,13,0,0,0,0,0,0,0,260,0,130,0,260,0,130,0,0,0,0,0,0,0,0,260,0,0,130,8,9,259,1,0,129,17,0,258,1,0,130,8,0,258,1,0,129,17,0,258,1,0,130,8,0,259,0,0,129,7,0,260,0,0,130,7,0,2,258,0,3,129,0,258,1,0,130,8,0,259,0,0,129,7,0,0,260,0,0,130,0,0,260,0,0,130,0,2,258,0,11,129,0,258,1,0,129,8,0,234,0,26,117,5,24
2017-08-05T23:59:58Z,129,259,259,129,259,129,259,129,1,13,0,0,0,0,0,0,0,259,0,129,0,259,0,129,0,0,0,0,0,0,0,0,259,0,0,129,9,9,258,1,0,128,18,0,258,0,0,129,8,0,257,1,0,128,18,0,258,0,0,129,7,0,258,0,0,128,8,0,259,0,0,129,8,0,2,257,0,3,128,0,258,0,0,129,8,0,258,0,0,128,8,0,0,259,0,0,129,0,0,259,0,0,129,0,2,257,0,11,128,0,258,0,0,128,8,0,233,0,26,116,5,24
2017-08-06T23:59:57Z,131,261,261,131,261,131,261,131,2,15,0,0,0,0,0,0,0,261,0,131,0,261,0,131,0,0,0,0,0,0,0,0,261,0,0,131,10,10,260,1,0,130,19,0,258,2,0,130,10,0,258,2,0,129,19,0,259,1,0,130,9,0,258,2,0,129,10,0,259,2,0,130,10,0,2,259,0,3,130,0,259,1,0,131,10,0,259,1,0,129,9,0,0,261,0,0,131,0,0,261,0,0,131,0,3,258,0,13,129,0,258,2,0,129,10,0,235,1,25,117,5,24
2017-08-07T23:59:59Z,130,258,258,130,258,130,258,130,0,13,0,0,0,0,0,0,0,258,0,130,0,258,0,130,0,0,0,0,0,0,0,0,258,0,0,130,10,10,257,1,0,129,18,0,257,0,0,130,8,0,256,1,0,129,18,0,257,0,0,130,8,0,257,0,0,129,9,0,258,0,0,130,9,0,2,256,0,3,129,0,257,0,0,130,9,0,257,0,0,129,9,0,0,258,0,0,130,0,0,258,0,0,130,0,3,255,0,13,129,0,257,0,0,129,8,0,234,0,24,117,4,24
2017-08-08T23:59:59Z,131,262,262,131,262,131,262,131,0,14,0,0,0,0,0,0,0,262,0,131,0,262,0,131,0,0,0,0,0,0,0,0,262,0,0,131,10,10,261,1,0,130,19,0,260,1,0,131,10,0,260,1,0,130,19,0,261,0,0,131,9,0,261,0,0,130,9,0,261,1,0,131,10,0,2,260,0,3,130,0,261,0,0,131,9,0,260,1,0,130,10,0,0,262,0,0,131,0,0,262,0,0,131,0,2,260,0,12,130,0,261,0,0,130,9,0,235,0,27,117,5,25
2017-08-09T23:59:59Z,132,262,262,132,262,132,262,132,1,15,0,0,0,0,0,0,0,262,0,132,0,262,0,132,0,0,0,0,0,0,0,0,262,0,0,132,13,10,261,1,0,131,22,0,261,0,0,132,11,0,259,2,0,130,21,0,260,1,0,131,11,0,260,1,0,130,12,0,261,1,0,131,11,0,2,260,0,3,131,0,261,0,0,132,12,0,261,0,0,131,11,0,0,262,0,0,132,0,0,262,0,0,132,0,2,260,0,12,131,0,260,1,0,130,11,0,234,1,27,117,7,27
2017-08-10T23:59:58Z,128,256,256,128,256,128,256,128,1,14,0,0,0,0,0,0,0,256,0,128,0,256,0,128,0,0,0,0,0,0,0,0,256,0,0,128,9,11,255,1,0,127,18,1,255,0,0,128,8,0,254,1,0,127,18,0,255,0,0,128,8,0,254,1,0,127,9,0,255,1,0,128,9,0,2,254,0,3,127,0,255,0,0,128,8,0,254,1,0,127,9,0,0,256,0,0,128,0,0,256,0,0,128,0,3,253,0,13,126,0,255,0,0,127,8,0,229,0,27,114,4,25
2017-08-11T23:59:59Z,128,253,253,128,253,128,253,128,1,13,0,0,0,0,0,0,0,253,0,128,0,253,0,128,0,0,0,0,0,0,0,0,253,0,0,128,10,9,252,1,0,127,17,0,252,0,0,128,9,0,251,1,0,127,17,0,252,0,0,128,8,0,252,0,0,127,9,0,253,0,0,128,8,0,2,251,0,3,127,0,252,0,0,128,8,0,252,0,0,127,8,0,0,253,0,0,128,0,0,253,0,0,128,0,3,250,0,12,127,0,252,0,0,127,8,0,227,0,26,114,3,25
2017-08-12T23:59:58Z,131,257,257,131,257,131,257,131,1,15,0,0,0,0,0,0,0,257,0,131,0,257,0,131,0,0,0,0,0,0,0,0,257,0,0,131,11,10,255,2,0,130,20,1,255,1,0,131,11,1,254,2,0,130,20,1,255,1,0,131,11,1,255,1,0,130,11,1,256,1,0,131,11,1,3,254,0,4,130,1,255,1,0,130,10,1,254,2,0,129,11,1,0,257,0,0,131,1,0,257,0,0,131,1,3,254,0,12,130,1,254,2,0,129,11,0,230,1,26,116,5,26
2017-08-13T23:59:59Z,130,258,258,130,258,130,258,130,1,14,0,0,0,0,0,0,0,258,0,130,0,258,0,130,0,0,0,0,0,0,0,0,258,0,0,130,9,9,256,2,0,129,18,0,256,1,0,130,9,0,255,2,0,129,18,0,256,1,0,130,9,0,256,1,0,129,9,0,258,0,0,130,8,0,1,257,0,2,129,0,256,1,0,130,9,0,257,0,0,129,8,0,0,258,0,0,130,0,0,258,0,0,130,0,2,256,0,11,129,0,256,1,0,129,9,0,231,0,27,116,3,25
2017-08-14T23:59:59Z,132,262,262,132,262,132,262,132,1,13,0,0,0,0,0,0,0,262,0,132,0,262,0,132,0,0,0,0,0,0,0,0,262,0,0,132,8,9,261,1,0,131,16,0,260,1,0,132,8,0,260,1,0,131,16,0,261,0,0,132,7,0,261,0,0,131,7,0,262,0,0,132,7,0,1,261,0,2,131,0,261,0,0,132,7,0,260,1,0,131,8,0,0,262,0,0,132,0,0,262,0,0,132,0,1,261,0,10,131,0,261,0,0,131,7,0,234,1,27,117,4,24
2017-08-15T23:59:58Z,135,271,271,135,271,135,271,135,1,14,0,0,0,0,0,0,0,271,0,135,0,271,0,135,0,0,0,0,0,0,0,0,271,0,0,135,9,9,270,1,0,134,17,0,269,1,0,135,9,0,267,3,0,133,18,0,268,2,0,134,9,0,268,2,0,133,9,0,269,2,0,134,9,0,1,270,0,2,134,0,268,2,0,134,9,0,268,2,0,133,9,0,0,271,0,0,135,0,0,271,0,0,135,0,1,270,0,10,134,0,269,1,0,133,8,0,242,1,28,120,4,24
2017-08-16T23:59:58Z,134,268,268,134,268,134,268,134,1,13,0,0,0,0,0,0,0,268,0,134,0,268,1,134,0,0,0,0,0,0,0,0,268,0,0,134,10,9,267,1,0,133,18,0,267,0,0,134,8,0,266,1,0,133,17,0,267,0,0,134,8,0,267,0,0,133,9,0,268,0,0,134,8,0,1,267,0,2,133,0,267,0,0,134,8,0,267,0,0,133,8,0,0,268,0,1,134,0,0,268,0,0,134,0,2,266,0,11,132,0,267,0,0,133,9,0,241,0,27,120,4,25
2017-08-17T23:59:58Z,136,271,271,136,270,135,270,135,2,14,0,0,0,0,0,0,0,271,0,136,0,271,0,136,0,0,0,0,0,0,0,0,271,0,0,136,9,10,268,2,1,134,19,1,269,0,1,135,8,1,268,1,1,134,18,1,269,0,0,135,8,1,268,1,1,134,8,1,269,1,1,134,8,1,2,268,1,3,134,1,268,1,0,134,8,1,268,1,0,133,8,0,0,271,0,0,136,1,1,270,0,1,135,1,1,270,0,10,135,0,268,1,0,133,8,1,243,1,27,121,5,24
2017-08-18T23:59:57Z,135,271,271,135,271,135,271,135,2,15,0,0,0,0,0,0,0,271,0,135,0,271,0,135,0,0,0,0,0,0,0,0,271,0,0,135,11,9,269,2,0,133,20,0,270,0,0,135,10,0,268,2,0,133,19,0,269,1,0,134,9,0,269,1,0,133,10,0,270,1,0,134,10,0,1,270,0,2,134,0,269,1,0,134,9,0,269,1,0,133,9,0,0,271,0,0,135,0,0,271,0,0,135,0,1,270,0,10,134,0,270,0,0,134,10,0,243,1,27,120,5,25
2017-08-19T23:59:58Z,129,261,261,129,261,129,261,129,1,11,0,0,0,0,0,0,0,261,0,129,0,261,1,129,0,0,0,0,0,0,0,0,261,0,0,129,8,8,260,1,0,128,15,1,260,0,0,129,6,1,259,1,0,128,15,1,260,0,0,129,7,1,260,0,0,128,6,1,261,0,0,129,6,1,1,260,0,2,128,1,260,0,0,129,7,1,260,0,0,128,6,1,0,261,0,0,129,1,0,261,0,0,129,1,1,260,0,8,128,1,260,0,0,128,6,1,236,0,25,117,3,22